Weather History for LIVT - November, 2011

Change the Weather History Date:

Saturday, November 26, 2011

  Actual Average Record
Temperature  
Mean Temperature 50 °F -  
Max Temperature 58 °F 48 °F 68 °F (2002)
Min Temperature 41 °F 41 °F 34 °F (2013)
Degree Days  
Heating Degree Days 16    
Moisture  
Dew Point 40 °F    
Average Humidity 78    
Maximum Humidity 93    
Minimum Humidity 58    
Precipitation  
Precipitation 0.00 in 0.12 in - ()
Sea Level Pressure  
Sea Level Pressure 30.35 in    
Wind  
Wind Speed 1 mph ()    
Max Wind Speed 4 mph    
Max Gust Speed -    
Visibility 8.0 miles    
Events      
Averages and records for this station are not official NWS values.
T = Trace of Precipitation, MM = Missing Value Source: Averaged Metar Reports

Daily Weather History Graph

Daily Weather History Graph

Search for Another Location

Airport or City:

Trip Planner

Search our weather history database for the weather conditions in past years. The results will help you decide how hot, cold, wet, or windy it might be!

Date:

Astronomy

Nov. 26, 2011 Rise Set
Actual Time 7:18 AM CET 4:25 PM CET
Civil Twilight 6:45 AM CET 4:58 PM CET
Nautical Twilight 6:08 AM CET 5:35 PM CET
Astronomical Twilight 5:33 AM CET 6:10 PM CET
Moon 8:35 AM CET (11/26) 5:34 PM CET (11/26)
Length of Visible Light 10h 13m
Length of Day
9h 06m
New Moon, 2% of the Moon is Illuminated
Nov 26
New Moon
Dec 2
First Quarter
Dec 10
Full
Dec 18
Last Quarter
Dec 24
New

Hourly Weather History & Observations

Time (CET) Temp. Windchill Dew Point Humidity Pressure Visibility Wind Dir Wind Speed Gust Speed Precip Events Conditions
12:55 AM 44.6 °F - 39.2 °F 81% 30.33 in - NE 1.2 mph - N/A   Clear
1:00 AM 45 °F - 38 °F 70% 30.33 in 6 mi NE 1.2 mph - -  
1:55 AM 42.8 °F - 39.2 °F 87% 30.33 in - NE 2.3 mph - N/A   Clear
2:55 AM 41.0 °F - 39.2 °F 93% 30.30 in - Calm Calm - N/A   Clear
3:55 AM 42.8 °F 41.1 °F 41.0 °F 93% 30.30 in - NE 3.5 mph - N/A   Clear
4:55 AM 42.8 °F 41.1 °F 41.0 °F 93% 30.33 in - ENE 3.5 mph - N/A   Clear
5:55 AM 41.0 °F - 37.4 °F 87% 30.33 in - NE 1.2 mph - N/A   Clear
6:55 AM 41.0 °F - 39.2 °F 93% 30.33 in - NE 1.2 mph - N/A   Clear
7:00 AM 41 °F - 39 °F 88% 30.35 in 12 mi NE 1.2 mph - -  
7:55 AM 41.0 °F - 39.2 °F 93% 30.33 in - Calm Calm - N/A   Clear
8:55 AM 46.4 °F - 37.4 °F 71% 30.36 in - Calm Calm - N/A   Clear
9:55 AM 53.6 °F - 39.2 °F 58% 30.36 in - ESE 2.3 mph - N/A   Clear
10:55 AM 57.2 °F - 42.8 °F 59% 30.36 in - South 1.2 mph - N/A   Clear
11:55 AM 57.2 °F - 44.6 °F 63% 30.36 in - WSW 1.2 mph - N/A   Clear
12:55 PM 57.2 °F - 44.6 °F 63% 30.36 in - SW 1.2 mph - N/A   Clear
1:55 PM 57.2 °F - 42.8 °F 59% 30.36 in - SSW 1.2 mph - N/A   Clear
2:55 PM 57.2 °F - 42.8 °F 59% 30.36 in - Calm Calm - N/A   Clear
3:55 PM 53.6 °F - 41.0 °F 62% 30.36 in - Calm Calm - N/A   Clear
4:55 PM 48.2 °F - 41.0 °F 76% 30.36 in - NE 2.3 mph - N/A   Clear
5:55 PM 46.4 °F - 41.0 °F 81% 30.36 in - ENE 1.2 mph - N/A   Clear
7:00 PM 46 °F - 42 °F 79% 30.39 in 6 mi NE 2.3 mph - -   Clear
7:55 PM 44.6 °F - 41.0 °F 87% 30.36 in - Calm Calm - N/A   Clear
8:55 PM 44.6 °F - 41.0 °F 87% 30.36 in - NE 1.2 mph - N/A   Clear
9:55 PM 44.6 °F 43.1 °F 39.2 °F 81% 30.36 in - NE 3.5 mph - N/A   Clear
10:55 PM 42.8 °F - 37.4 °F 81% 30.36 in - NE 1.2 mph - N/A   Clear
11:55 PM 42.8 °F - 37.4 °F 81% 30.36 in - NE 2.3 mph - N/A   Clear